Theta_e
304 304 305 305 306 306 305 312 317 318 316 321 323 321 317 317 321 322 323 324 325 330 333 333 326 325 326 326 325 325 326 327 331 328 329 329 328 328 331 335 334 335 337 340
304 304 303 305 306 307 306 312 314 315 319 324 324 322 318 318 320 321 323 324 325 329 330 333 334 328 328 327 325 324 327 328 329 335 329 328 328 328 328 333 329 331 340 339
304 304 303 304 306 306 306 313 321 321 320 322 323 323 324 323 322 322 323 324 329 331 329 329 331 333 331 328 327 336 332 328 332 330 334 330 329 330 330 327 328 329 335 340
304 304 303 303 306 305 308 315 321 319 322 322 320 324 327 323 324 325 325 324 330 330 331 332 333 335 339 330 334 333 329 331 331 330 330 329 332 332 330 328 327 333 336 342
303 304 303 302 306 307 312 319 316 313 313 318 324 326 328 330 324 329 334 331 330 330 334 338 340 338 339 341 331 329 329 335 334 333 331 329 329 330 332 332 330 329 330 338
303 303 303 303 305 307 310 311 314 312 313 315 319 324 323 328 324 332 332 332 332 331 335 334 332 332 333 332 338 335 332 336 333 332 331 331 332 333 332 331 331 331 331 336
303 303 303 303 304 306 307 308 311 314 317 320 323 320 320 328 335 335 331 332 334 331 327 331 332 332 333 334 336 338 343 344 334 331 334 334 332 333 334 337 338 336 336 338
303 303 303 304 304 305 306 307 311 313 313 314 317 316 317 320 324 332 332 331 329 327 327 335 338 335 335 337 336 341 340 340 344 340 333 333 335 333 338 339 339 337 337 339
302 303 304 304 304 304 306 307 309 313 312 317 315 314 317 319 321 324 328 329 328 327 328 334 336 340 339 340 337 338 341 341 343 342 344 348 335 338 337 339 342 337 335 337
302 302 303 304 304 304 306 307 309 312 312 313 313 314 312 314 317 324 325 322 328 327 328 330 333 330 334 340 339 345 342 340 340 341 344 341 338 340 336 341 339 337 335 333
302 302 303 304 304 304 306 306 309 311 314 312 312 313 312 311 313 320 320 323 329 330 334 330 330 330 330 334 337 336 343 342 339 340 341 343 339 340 346 341 339 339 339 337
302 302 303 304 304 304 305 307 307 309 313 313 312 311 311 312 313 312 314 319 327 331 333 334 335 331 332 337 339 339 348 344 349 350 348 340 338 336 334 333 335 335 334 333
302 302 304 304 304 303 305 306 307 309 312 313 313 313 313 313 312 312 314 320 321 322 322 328 333 340 337 341 341 341 341 338 342 344 341 339 338 334 332 333 335 334 333 332
302 303 303 304 303 302 303 306 307 308 311 314 314 312 311 312 311 311 312 313 317 318 319 321 331 335 331 337 340 340 338 339 339 340 338 339 334 332 334 334 331 331 333 332
302 303 303 304 303 301 302 305 307 308 311 314 314 313 313 311 312 314 313 315 317 318 320 322 324 329 330 329 331 336 336 338 342 337 337 336 334 330 327 327 327 326 326 330
301 301 301 303 301 301 305 312 309 307 305 312 316 315 314 313 313 313 315 316 318 318 319 322 322 321 324 329 328 327 333 334 329 332 333 330 328 328 324 324 325 324 324 324
301 301 300 302 300 302 306 309 309 305 306 311 317 316 315 315 316 315 314 315 316 317 318 319 318 320 321 321 324 320 322 323 320 320 323 322 323 322 322 321 322 323 323 323
302 301 301 301 300 302 304 305 306 306 306 311 316 318 317 314 314 318 317 317 316 317 318 319 319 321 319 319 323 320 321 321 321 321 321 322 322 322 323 323 323 323 322 322
301 301 301 303 305 308 310 309 306 305 308 314 317 316 320 314 318 320 317 320 320 318 316 316 318 319 320 320 319 320 322 323 323 322 323 324 324 324 322 321 321 321 321 321
301 301 305 308 309 308 306 307 311 310 312 311 313 314 316 313 316 316 319 319 321 319 318 317 316 328 326 325 324 324 324 323 321 321 322 320 320 320 320 320 319 318 317 318
302 306 308 308 308 306 311 313 315 314 315 313 312 312 316 315 319 321 319 320 320 319 319 319 324 333 326 324 323 323 322 321 320 320 319 319 319 319 319 318 318 317 318 317
304 305 306 308 309 312 312 313 314 314 313 313 312 313 316 318 318 320 319 319 319 320 321 322 332 327 322 322 321 321 320 321 321 321 321 320 320 319 318 318 319 319 319 319
305 306 309 312 311 310 311 312 312 313 315 313 315 314 314 318 316 319 320 318 318 318 319 327 325 322 321 320 320 320 321 321 321 321 320 320 320 320 321 319 320 320 320 320
307 308 305 311 312 309 311 312 315 315 315 315 317 316 319 318 316 320 318 319 319 320 321 325 322 320 319 319 321 321 321 321 321 321 321 322 322 322 321 320 321 322 324 327
308 309 309 310 310 310 313 314 314 314 315 315 315 316 317 317 316 318 318 318 318 324 324 322 320 320 320 319 321 322 322 322 321 322 324 324 322 324 324 323 324 324 321 320
308 309 311 312 312 311 311 313 314 314 315 315 316 318 318 318 318 317 318 317 324 322 321 320 321 321 318 318 320 321 320 319 321 323 323 322 323 323 322 323 321 323 322 317
308 309 310 311 314 314 312 314 313 315 315 317 317 316 315 317 316 315 323 322 320 319 320 320 321 322 321 319 317 319 320 319 319 320 322 323 322 322 322 323 323 323 323 323
Wind_Speed
27 29 30 32 37 43 25 9 4 8 38 6 5 10 7 14 19 20 24 23 25 24 8 8 20 16 22 22 22 23 23 6 11 16 10 13 9 9 10 5 6 2 5 5
25 27 30 30 32 32 20 6 5 14 13 7 10 10 22 25 22 23 26 26 25 23 9 7 9 15 20 21 24 24 15 13 10 7 12 14 15 11 9 6 4 5 4 3
24 26 27 29 32 31 16 4 4 3 2 6 11 14 17 20 22 24 26 26 15 16 11 13 12 14 9 25 24 27 13 7 8 8 10 11 12 15 8 8 5 6 6 6
22 24 28 29 33 33 3 4 4 7 6 7 17 15 16 24 23 19 20 18 7 16 8 12 9 9 8 15 25 21 14 9 8 8 7 5 8 8 8 8 8 7 5 11
22 22 24 27 31 31 8 4 4 5 9 12 13 13 17 21 24 14 8 16 14 21 6 4 6 10 6 4 5 21 14 6 7 4 3 6 6 10 17 17 11 8 7 7
21 22 23 24 24 24 6 11 12 3 7 8 9 10 24 19 22 5 7 19 8 9 6 7 5 7 13 8 3 3 10 7 4 5 2 4 6 5 5 7 13 11 10 8
20 20 21 21 20 17 13 13 15 5 7 8 8 20 23 15 9 7 11 17 4 6 12 9 5 6 10 8 9 5 4 4 4 4 4 7 6 6 3 15 14 14 9 13
18 18 19 19 20 17 21 18 7 4 6 9 14 23 21 18 13 5 11 7 6 10 9 5 4 4 8 6 4 7 6 5 5 4 5 4 5 8 4 5 3 6 16 9
19 17 18 18 19 18 22 26 17 8 4 5 16 17 15 6 14 9 8 7 2 6 2 1 2 1 2 3 5 7 11 8 5 4 5 1 5 4 6 2 4 2 14 14
17 17 17 17 18 18 20 15 12 6 6 11 11 6 9 9 9 6 4 11 5 2 2 2 1 5 1 4 4 3 3 3 6 5 4 7 9 16 5 6 6 3 7 11
17 16 16 16 17 17 18 19 12 10 5 13 7 8 8 10 7 5 9 9 7 5 2 1 3 4 6 4 6 10 6 3 1 3 4 4 20 12 5 3 6 9 7 3
15 15 16 15 15 15 15 10 18 20 4 7 27 26 21 15 8 6 5 4 6 4 4 5 4 4 3 1 4 7 5 5 2 2 5 5 10 6 14 15 9 9 8 8
14 14 14 14 14 13 12 14 17 14 4 8 7 10 18 9 7 7 2 3 6 4 3 3 3 4 5 4 4 4 5 3 4 2 5 4 6 11 14 14 12 7 8 6
13 13 14 14 14 13 13 12 16 12 5 4 1 7 1 3 6 6 7 10 7 5 3 2 3 3 6 4 4 3 2 1 2 4 7 5 6 5 4 8 12 16 12 8
12 12 13 13 13 14 16 17 17 16 8 4 6 16 11 4 2 8 6 4 3 3 3 2 3 1 5 5 2 3 3 6 4 3 1 4 6 9 8 9 8 9 9 12
11 11 13 12 12 13 9 2 6 4 8 3 3 2 5 9 6 2 6 3 4 2 2 2 4 3 3 2 6 6 6 11 14 7 14 10 12 5 7 5 7 5 6 9
11 11 13 12 11 10 6 4 5 9 11 2 4 2 4 14 7 3 3 4 3 2 2 2 1 3 3 3 1 5 9 9 9 8 9 7 9 5 8 8 9 10 10 12
8 10 11 12 13 13 11 11 11 9 6 3 3 4 4 8 3 3 4 3 2 2 2 2 2 2 2 1 2 7 8 8 9 10 9 6 3 2 4 5 6 7 7 7
5 7 9 6 4 4 2 4 4 6 4 3 3 3 2 4 3 3 1 2 3 3 2 2 2 2 1 5 2 6 8 8 8 9 7 7 6 6 6 7 8 6 7 8
3 3 4 2 4 6 3 2 3 3 4 3 3 3 3 3 1 3 3 2 2 3 4 2 2 6 18 20 17 13 12 10 11 10 8 8 8 8 9 7 7 7 8 9
2 3 2 7 5 3 3 2 3 4 3 4 3 4 4 4 4 3 3 2 3 0 3 5 2 4 11 15 17 17 17 15 13 11 9 9 8 7 7 7 8 8 11 10
5 6 8 5 3 1 3 3 3 4 4 4 4 3 2 2 2 2 3 3 3 2 3 2 4 4 9 12 14 14 14 14 14 14 12 12 11 10 8 10 10 10 16 21
2 2 3 2 0 1 4 4 3 3 2 0 3 2 1 1 2 2 3 2 2 3 4 4 3 6 7 9 9 10 8 10 7 9 12 15 16 18 15 8 17 20 16 22
2 2 3 3 3 4 3 5 6 4 4 3 2 3 2 2 1 1 2 2 3 3 2 3 3 6 8 9 9 8 10 11 12 12 14 14 14 14 18 18 18 19 13 19
3 3 3 4 5 2 2 2 5 4 5 4 1 2 1 1 1 2 4 1 1 6 3 2 3 5 7 7 9 9 8 8 8 10 10 10 12 12 13 14 10 12 10 13
2 3 4 5 4 6 2 8 5 3 2 2 2 1 2 2 2 2 3 4 5 3 3 2 3 3 3 4 6 6 7 8 8 10 10 11 10 8 7 10 7 4 6 5
3 1 4 4 3 6 5 8 5 5 2 3 2 1 2 2 1 2 4 3 2 1 3 2 2 3 5 4 5 8 9 9 10 12 12 11 7 7 10 7 10 9 7 5
Wind_Direction
337 339 342 347 352 353 358 306 275 333 146 165 208 240 240 255 263 269 274 267 267 274 302 295 201 220 194 190 203 223 225 201 239 203 197 184 197 185 172 132 275 223 157 248
338 339 341 346 352 360 340 296 272 288 243 205 229 238 239 252 255 255 264 270 269 275 271 304 288 235 195 189 196 224 218 231 243 285 212 187 202 221 188 161 134 237 139 277
335 337 341 343 346 350 342 283 295 270 257 257 243 264 272 259 244 253 262 270 278 288 274 268 276 287 256 194 195 215 199 227 171 212 207 179 200 214 194 169 149 230 205 140
330 335 339 344 344 346 273 240 271 356 320 324 325 306 290 273 277 258 252 264 283 290 298 294 279 298 344 221 194 205 203 206 207 221 238 270 220 188 213 218 217 162 190 150
328 333 338 344 350 353 199 304 348 337 292 281 284 279 280 263 264 280 290 328 204 249 325 27 337 356 359 269 276 195 210 202 160 209 240 236 230 212 207 240 225 245 222 197
324 331 334 344 355 8 329 343 340 290 291 306 312 314 314 301 256 259 282 332 251 221 19 271 295 284 283 276 327 244 147 136 114 183 202 330 317 249 221 246 213 199 232 222
316 323 328 337 347 356 324 298 305 293 297 315 331 306 326 347 62 280 304 307 330 19 330 300 308 284 285 313 26 39 75 90 113 153 127 241 238 309 25 84 46 36 40 154
304 313 324 330 335 339 329 302 292 299 298 311 324 333 321 334 335 104 238 272 248 327 352 329 333 7 350 347 300 47 80 88 61 109 192 213 231 264 114 133 11 48 56 83
299 305 316 324 329 333 331 304 271 289 283 245 341 327 356 355 350 345 346 234 259 41 300 233 319 267 124 288 337 40 79 89 102 84 91 12 246 153 106 76 122 72 81 62
296 299 308 320 326 328 329 284 303 286 286 267 327 351 335 340 337 312 345 347 303 3 185 299 295 272 126 312 150 356 350 34 124 124 106 280 337 299 91 60 253 69 109 121
288 294 304 313 321 326 336 291 314 293 293 290 256 312 324 328 4 348 325 319 7 0 13 226 233 229 252 284 162 169 163 170 217 114 97 265 354 312 97 216 62 95 83 44
287 290 296 302 314 322 333 289 313 331 258 279 295 288 280 276 299 301 331 296 6 1 355 15 317 291 304 102 114 307 41 339 61 99 125 114 251 39 360 28 42 23 42 42
286 291 294 296 307 316 321 302 307 314 266 282 237 251 259 241 302 312 340 354 358 6 321 299 284 313 348 27 33 92 100 267 138 130 13 322 345 51 44 11 9 355 336 14
282 290 292 295 303 311 309 296 295 311 275 274 17 125 61 232 307 282 275 281 317 294 277 268 282 328 7 34 201 112 168 101 56 70 35 18 0 353 185 93 65 355 346 358
278 285 288 295 303 311 304 291 276 270 275 304 298 312 243 198 245 297 242 299 329 310 331 323 277 31 5 317 40 97 197 164 127 156 258 106 280 287 54 36 32 45 350 334
276 283 288 291 305 317 315 268 178 10 8 280 285 21 156 173 190 258 320 269 232 242 332 301 314 16 59 10 78 65 77 114 134 170 175 178 233 199 51 22 16 22 334 332
277 276 290 290 300 302 259 278 294 335 343 260 283 257 151 176 185 209 217 251 277 217 242 238 326 25 49 10 354 38 82 103 76 79 96 76 20 17 20 12 356 346 326 318
272 281 290 294 297 283 268 264 264 265 260 267 277 266 138 176 204 213 194 181 223 286 277 321 100 54 88 90 44 85 91 90 81 68 73 105 111 64 18 347 348 359 345 338
265 293 297 305 232 245 257 233 247 231 275 305 295 290 9 178 241 141 141 220 195 173 194 279 106 169 136 201 156 103 89 80 77 67 63 39 42 31 25 24 4 357 335 331
274 312 250 252 231 219 268 206 195 204 201 225 253 271 299 338 281 209 161 181 247 172 210 172 167 82 21 22 46 48 50 56 51 52 31 24 17 8 357 349 343 342 336 331
235 236 234 263 249 260 235 227 219 196 210 204 233 253 295 20 23 322 44 316 300 340 207 163 120 55 13 10 20 22 23 22 24 22 14 5 358 347 338 331 327 322 315 311
325 300 287 282 232 287 275 219 244 207 226 181 198 223 37 29 329 318 345 327 343 359 305 8 72 15 15 10 8 10 4 359 358 359 351 339 326 314 310 315 309 305 311 310
30 301 272 323 177 132 225 210 206 216 167 338 90 68 80 83 330 336 355 318 289 3 356 68 45 344 359 357 348 349 347 351 345 347 343 337 329 320 322 306 310 297 307 304
295 299 329 216 228 216 268 7 26 10 104 75 353 104 43 21 314 304 220 355 344 305 57 66 20 4 347 344 340 342 359 351 352 347 336 330 324 318 320 305 310 307 330 320
253 238 269 227 284 44 146 48 88 349 48 76 68 34 1 215 64 290 24 183 311 41 70 81 63 352 350 350 335 349 345 351 329 330 338 341 349 338 328 325 353 50 27 17
257 257 312 337 351 250 175 88 26 69 60 41 24 60 321 63 351 332 2 314 52 72 27 56 78 360 6 347 346 340 348 336 337 332 348 342 327 349 6 39 19 9 186 161
294 148 44 294 340 310 351 93 49 332 8 19 336 244 35 206 48 68 32 56 91 8 338 54 132 360 336 330 311 304 308 297 313 317 313 306 331 343 21 14 24 36 41 66